Time,TemperatureF,DewpointF,PressureIn,WindDirection,WindDirectionDegrees,WindSpeedMPH,WindSpeedGustMPH,Humidity,HourlyPrecipIn,Conditions,Clouds,dailyrainin,SoftwareType,DateUTC
2013-03-05 00:03:00,66.1,46.9,29.74,North,355,10.0,11.0,50,0.00,,---,0.00,VWS V14.01,2013-03-05 06:03:00,
2013-03-05 00:08:00,65.6,45.4,29.74,North,9,7.0,14.0,48,0.00,,---,0.00,VWS V14.01,2013-03-05 06:08:00,
2013-03-05 00:13:00,65.1,44.9,29.74,NNW,339,4.0,13.0,48,0.00,,---,0.00,VWS V14.01,2013-03-05 06:13:00,
2013-03-05 00:18:00,64.4,44.3,29.75,NNW,348,10.0,15.0,48,0.00,,---,0.00,VWS V14.01,2013-03-05 06:18:00,
2013-03-05 00:23:00,63.4,44.5,29.76,NNW,338,4.0,14.0,50,0.00,,---,0.00,VWS V14.01,2013-03-05 06:23:00,
2013-03-05 00:28:00,62.3,44.5,29.78,North,355,7.0,18.0,52,0.00,,---,0.00,VWS V14.01,2013-03-05 06:28:00,
2013-03-05 00:33:00,61.1,44.3,29.79,NNW,346,13.0,20.0,54,0.00,,---,0.00,VWS V14.01,2013-03-05 06:33:00,
2013-03-05 00:38:00,59.8,44.1,29.79,NW,315,11.0,20.0,56,0.00,,---,0.00,VWS V14.01,2013-03-05 06:38:00,
2013-03-05 00:43:00,58.6,43.4,29.80,NW,317,22.0,22.0,57,0.00,,---,0.00,VWS V14.01,2013-03-05 06:43:00,
2013-03-05 00:48:00,57.5,43.3,29.80,NNW,348,9.0,28.0,59,0.00,,---,0.00,VWS V14.01,2013-03-05 06:48:00,
2013-03-05 00:53:00,56.8,43.1,29.81,NNE,20,5.0,19.0,60,0.00,,---,0.00,VWS V14.01,2013-03-05 06:53:00,
2013-03-05 00:59:00,56.6,43.3,29.81,NW,310,22.0,22.0,61,0.00,,---,0.00,VWS V14.01,2013-03-05 06:59:00,
2013-03-05 01:04:00,56.3,43.5,29.82,NW,323,18.0,20.0,62,0.00,,---,0.00,VWS V14.01,2013-03-05 07:04:00,
2013-03-05 01:09:00,56.1,42.8,29.84,North,5,8.0,21.0,61,0.00,,---,0.00,VWS V14.01,2013-03-05 07:09:00,
2013-03-05 01:14:00,55.6,42.0,29.86,NNW,344,19.0,25.0,60,0.00,,---,0.00,VWS V14.01,2013-03-05 07:14:00,
2013-03-05 01:19:00,54.9,41.7,29.87,NNW,348,6.0,17.0,61,0.00,,---,0.00,VWS V14.01,2013-03-05 07:19:00,
2013-03-05 01:24:00,54.4,41.7,29.88,NNW,338,20.0,23.0,62,0.00,,---,0.00,VWS V14.01,2013-03-05 07:24:00,
2013-03-05 01:29:00,53.6,41.3,29.88,NW,317,7.0,15.0,63,0.00,,---,0.00,VWS V14.01,2013-03-05 07:29:00,
2013-03-05 01:34:00,53.2,41.3,29.90,NNW,333,9.0,14.0,64,0.00,,---,0.00,VWS V14.01,2013-03-05 07:34:00,
2013-03-05 01:39:00,52.8,41.0,29.91,NW,323,12.0,22.0,64,0.00,,---,0.00,VWS V14.01,2013-03-05 07:39:00,
2013-03-05 01:44:00,52.2,40.4,29.92,NNW,333,12.0,27.0,64,0.00,,---,0.00,VWS V14.01,2013-03-05 07:44:00,
2013-03-05 01:49:00,51.7,40.3,29.92,WNW,303,8.0,23.0,65,0.00,,---,0.00,VWS V14.01,2013-03-05 07:49:00,
2013-03-05 01:54:00,51.3,40.3,29.93,NNW,328,9.0,22.0,66,0.00,,---,0.00,VWS V14.01,2013-03-05 07:54:00,
2013-03-05 01:59:00,50.9,40.0,29.92,NNW,334,11.0,26.0,66,0.00,,---,0.00,VWS V14.01,2013-03-05 07:59:00,
2013-03-05 02:04:00,50.7,39.8,29.93,NNW,334,5.0,21.0,66,0.00,,---,0.00,VWS V14.01,2013-03-05 08:04:00,
2013-03-05 02:10:00,50.5,40.0,29.94,North,5,2.0,21.0,67,0.00,,---,0.00,VWS V14.01,2013-03-05 08:10:00,
2013-03-05 02:15:00,50.3,39.8,29.95,NNW,328,10.0,19.0,67,0.00,,---,0.00,VWS V14.01,2013-03-05 08:15:00,
2013-03-05 02:20:00,50.1,39.2,29.95,NNE,15,10.0,22.0,66,0.00,,---,0.00,VWS V14.01,2013-03-05 08:20:00,
2013-03-05 02:25:00,50.0,39.1,29.96,NW,309,8.0,15.0,66,0.00,,---,0.00,VWS V14.01,2013-03-05 08:25:00,
2013-03-05 02:30:00,49.9,39.0,29.96,NNW,346,23.0,23.0,66,0.00,,---,0.00,VWS V14.01,2013-03-05 08:30:00,
2013-03-05 02:35:00,49.7,38.8,29.96,North,355,16.0,27.0,66,0.00,,---,0.00,VWS V14.01,2013-03-05 08:35:00,
2013-03-05 02:40:00,49.5,38.2,29.96,North,355,21.0,27.0,65,0.00,,---,0.00,VWS V14.01,2013-03-05 08:40:00,
2013-03-05 02:45:00,49.4,38.1,29.96,North,355,32.0,32.0,65,0.00,,---,0.00,VWS V14.01,2013-03-05 08:45:00,
2013-03-05 02:50:00,49.3,38.0,29.95,North,355,11.0,18.0,65,0.00,,---,0.00,VWS V14.01,2013-03-05 08:50:00,
2013-03-05 02:55:00,49.2,37.6,29.96,NNE,22,10.0,21.0,64,0.00,,---,0.00,VWS V14.01,2013-03-05 08:55:00,
2013-03-05 03:00:00,49.1,37.5,29.97,NNW,336,14.0,20.0,64,0.00,,---,0.00,VWS V14.01,2013-03-05 09:00:00,
2013-03-05 03:05:00,49.2,36.8,29.99,NNW,329,17.0,22.0,62,0.00,,---,0.00,VWS V14.01,2013-03-05 09:05:00,
2013-03-05 03:10:00,49.1,36.7,30.00,NNW,327,16.0,21.0,62,0.00,,---,0.00,VWS V14.01,2013-03-05 09:10:00,
2013-03-05 03:16:00,49.2,36.3,30.00,NW,312,13.0,24.0,61,0.00,,---,0.00,VWS V14.01,2013-03-05 09:16:00,
2013-03-05 03:21:00,49.2,35.9,30.02,North,355,12.0,16.0,60,0.00,,---,0.00,VWS V14.01,2013-03-05 09:21:00,
2013-03-05 03:26:00,49.3,35.6,30.05,NNW,329,10.0,16.0,59,0.00,,---,0.00,VWS V14.01,2013-03-05 09:26:00,
2013-03-05 03:31:00,49.4,35.3,30.07,NNW,329,14.0,20.0,58,0.00,,---,0.00,VWS V14.01,2013-03-05 09:31:00,
2013-03-05 03:36:00,49.4,34.8,30.07,NNW,346,10.0,19.0,57,0.00,,---,0.00,VWS V14.01,2013-03-05 09:36:00,
2013-03-05 03:41:00,49.4,34.8,30.05,NNW,337,10.0,16.0,57,0.00,,---,0.00,VWS V14.01,2013-03-05 09:41:00,
2013-03-05 03:46:00,49.2,34.2,30.04,NNW,348,8.0,25.0,56,0.00,,---,0.00,VWS V14.01,2013-03-05 09:46:00,
2013-03-05 03:51:00,49.2,34.2,30.05,NNW,344,15.0,24.0,56,0.00,,---,0.00,VWS V14.01,2013-03-05 09:51:00,
2013-03-05 03:56:00,49.2,34.2,30.07,NW,320,11.0,24.0,56,0.00,,---,0.00,VWS V14.01,2013-03-05 09:56:00,
2013-03-05 04:01:00,49.2,34.2,30.06,North,355,12.0,18.0,56,0.00,,---,0.00,VWS V14.01,2013-03-05 10:01:00,
2013-03-05 04:06:00,49.3,34.3,30.06,North,350,4.0,19.0,56,0.00,,---,0.00,VWS V14.01,2013-03-05 10:06:00,
2013-03-05 04:11:00,49.2,34.2,30.09,NNW,336,15.0,18.0,56,0.00,,---,0.00,VWS V14.01,2013-03-05 10:11:00,
2013-03-05 04:16:00,49.2,34.2,30.09,NNW,336,4.0,22.0,56,0.00,,---,0.00,VWS V14.01,2013-03-05 10:16:00,
2013-03-05 04:22:00,49.2,34.2,30.09,North,355,12.0,19.0,56,0.00,,---,0.00,VWS V14.01,2013-03-05 10:22:00,
2013-03-05 04:27:00,49.0,34.5,30.08,NNE,32,9.0,25.0,57,0.00,,---,0.00,VWS V14.01,2013-03-05 10:27:00,
2013-03-05 04:32:00,48.8,34.3,30.10,North,9,5.0,13.0,57,0.00,,---,0.00,VWS V14.01,2013-03-05 10:32:00,
2013-03-05 04:37:00,48.7,34.6,30.10,NNE,20,7.0,16.0,58,0.00,,---,0.00,VWS V14.01,2013-03-05 10:37:00,
2013-03-05 04:42:00,48.7,34.6,30.11,North,355,6.0,15.0,58,0.00,,---,0.00,VWS V14.01,2013-03-05 10:42:00,
2013-03-05 04:47:00,48.6,34.9,30.11,North,355,10.0,21.0,59,0.00,,---,0.00,VWS V14.01,2013-03-05 10:47:00,
2013-03-05 04:52:00,48.4,34.8,30.11,NNE,21,21.0,21.0,59,0.00,,---,0.00,VWS V14.01,2013-03-05 10:52:00,
2013-03-05 04:57:00,48.3,34.7,30.11,North,355,4.0,19.0,59,0.00,,---,0.00,VWS V14.01,2013-03-05 10:57:00,
2013-03-05 05:02:00,48.0,34.8,30.10,North,350,5.0,15.0,60,0.00,,---,0.00,VWS V14.01,2013-03-05 11:02:00,
2013-03-05 05:07:00,47.8,34.6,30.11,NE,38,10.0,10.0,60,0.00,,---,0.00,VWS V14.01,2013-03-05 11:07:00,
2013-03-05 05:12:00,47.7,34.9,30.11,NNW,344,9.0,14.0,61,0.00,,---,0.00,VWS V14.01,2013-03-05 11:12:00,
2013-03-05 05:17:00,47.5,34.7,30.11,NW,305,14.0,15.0,61,0.00,,---,0.00,VWS V14.01,2013-03-05 11:17:00,
2013-03-05 05:23:00,47.4,34.6,30.11,NNW,344,11.0,13.0,61,0.00,,---,0.00,VWS V14.01,2013-03-05 11:23:00,
2013-03-05 05:28:00,47.3,34.1,30.12,NNW,329,15.0,24.0,60,0.00,,---,0.00,VWS V14.01,2013-03-05 11:28:00,
2013-03-05 05:33:00,47.3,34.1,30.12,NNW,346,3.0,12.0,60,0.00,,---,0.00,VWS V14.01,2013-03-05 11:33:00,
2013-03-05 05:38:00,47.1,33.9,30.12,NW,313,7.0,21.0,60,0.00,,---,0.00,VWS V14.01,2013-03-05 11:38:00,
2013-03-05 05:43:00,47.1,33.1,30.13,NW,316,13.0,17.0,58,0.00,,---,0.00,VWS V14.01,2013-03-05 11:43:00,
2013-03-05 05:48:00,47.0,33.0,30.13,NNW,334,9.0,13.0,58,0.00,,---,0.00,VWS V14.01,2013-03-05 11:48:00,
2013-03-05 05:53:00,46.8,32.4,30.14,NW,315,7.0,12.0,57,0.00,,---,0.00,VWS V14.01,2013-03-05 11:53:00,
2013-03-05 05:58:00,46.6,32.2,30.14,NNW,331,11.0,19.0,57,0.00,,---,0.00,VWS V14.01,2013-03-05 11:58:00,
2013-03-05 06:03:00,46.5,32.1,30.15,North,355,12.0,16.0,57,0.00,,---,0.00,VWS V14.01,2013-03-05 12:03:00,
2013-03-05 06:08:00,46.4,32.0,30.15,NNW,327,10.0,20.0,57,0.00,,---,0.00,VWS V14.01,2013-03-05 12:08:00,
2013-03-05 06:14:00,46.3,31.5,30.15,NNW,347,11.0,20.0,56,0.00,,---,0.00,VWS V14.01,2013-03-05 12:14:00,
2013-03-05 06:19:00,46.3,31.5,30.16,NNW,329,5.0,18.0,56,0.00,,---,0.00,VWS V14.01,2013-03-05 12:19:00,
2013-03-05 06:24:00,46.2,31.4,30.16,NW,317,6.0,20.0,56,0.00,,---,0.00,VWS V14.01,2013-03-05 12:24:00,
2013-03-05 06:29:00,46.1,31.7,30.17,North,360,11.0,13.0,57,0.00,,---,0.00,VWS V14.01,2013-03-05 12:29:00,
2013-03-05 06:34:00,45.9,31.1,30.17,North,350,3.0,13.0,56,0.00,,---,0.00,VWS V14.01,2013-03-05 12:34:00,
2013-03-05 06:39:00,45.7,30.9,30.17,NW,321,8.0,25.0,56,0.00,,---,0.00,VWS V14.01,2013-03-05 12:39:00,
2013-03-05 06:44:00,45.6,30.4,30.17,NNW,340,3.0,25.0,55,0.00,,---,0.00,VWS V14.01,2013-03-05 12:44:00,
2013-03-05 06:49:00,45.4,30.6,30.18,NNW,343,8.0,10.0,56,0.00,,---,0.00,VWS V14.01,2013-03-05 12:49:00,
2013-03-05 06:54:00,45.2,30.5,30.18,NNW,348,1.0,15.0,56,0.00,,---,0.00,VWS V14.01,2013-03-05 12:54:00,
2013-03-05 06:59:00,45.1,30.4,30.19,NW,321,5.0,17.0,56,0.00,,---,0.00,VWS V14.01,2013-03-05 12:59:00,
2013-03-05 07:04:00,45.1,30.4,30.19,North,9,8.0,22.0,56,0.00,,---,0.00,VWS V14.01,2013-03-05 13:04:00,
2013-03-05 07:09:00,45.2,30.9,30.19,North,355,8.0,17.0,57,0.00,,---,0.00,VWS V14.01,2013-03-05 13:09:00,
2013-03-05 07:14:00,45.1,31.2,30.20,NNW,344,16.0,16.0,58,0.00,,---,0.00,VWS V14.01,2013-03-05 13:14:00,
2013-03-05 07:20:00,45.2,31.3,30.20,NNW,333,13.0,18.0,58,0.00,,---,0.00,VWS V14.01,2013-03-05 13:20:00,
2013-03-05 07:25:00,45.3,31.4,30.20,NW,323,6.0,17.0,58,0.00,,---,0.00,VWS V14.01,2013-03-05 13:25:00,
2013-03-05 07:30:00,45.5,31.6,30.21,NNW,336,2.0,15.0,58,0.00,,---,0.00,VWS V14.01,2013-03-05 13:30:00,
2013-03-05 07:35:00,45.6,31.7,30.21,NNW,335,16.0,16.0,58,0.00,,---,0.00,VWS V14.01,2013-03-05 13:35:00,
2013-03-05 07:40:00,45.6,31.3,30.22,North,355,9.0,18.0,57,0.00,,---,0.00,VWS V14.01,2013-03-05 13:40:00,
2013-03-05 07:45:00,45.7,30.9,30.22,NW,325,10.0,19.0,56,0.00,,---,0.00,VWS V14.01,2013-03-05 13:45:00,
2013-03-05 07:50:00,45.9,31.1,30.22,NNW,333,14.0,16.0,56,0.00,,---,0.00,VWS V14.01,2013-03-05 13:50:00,
2013-03-05 07:55:00,46.1,30.9,30.23,NNW,336,8.0,15.0,55,0.00,,---,0.00,VWS V14.01,2013-03-05 13:55:00,
2013-03-05 08:00:00,46.3,30.6,30.23,NNW,333,20.0,20.0,54,0.00,,---,0.00,VWS V14.01,2013-03-05 14:00:00,
2013-03-05 08:05:00,46.4,30.2,30.23,NW,311,4.0,16.0,53,0.00,,---,0.00,VWS V14.01,2013-03-05 14:05:00,
2013-03-05 08:10:00,46.8,30.6,30.24,NNW,334,6.0,13.0,53,0.00,,---,0.00,VWS V14.01,2013-03-05 14:10:00,
2013-03-05 08:16:00,46.8,29.6,30.23,North,355,8.0,19.0,51,0.00,,---,0.00,VWS V14.01,2013-03-05 14:16:00,
2013-03-05 08:21:00,46.8,29.6,30.24,North,5,5.0,15.0,51,0.00,,---,0.00,VWS V14.01,2013-03-05 14:21:00,
2013-03-05 08:26:00,47.0,29.3,30.24,North,355,9.0,20.0,50,0.00,,---,0.00,VWS V14.01,2013-03-05 14:26:00,
2013-03-05 08:31:00,47.2,29.0,30.24,NNW,331,13.0,23.0,49,0.00,,---,0.00,VWS V14.01,2013-03-05 14:31:00,
2013-03-05 08:36:00,47.4,28.7,30.24,NNW,329,14.0,17.0,48,0.00,,---,0.00,VWS V14.01,2013-03-05 14:36:00,
2013-03-05 08:41:00,47.8,29.1,30.25,NW,321,10.0,10.0,48,0.00,,---,0.00,VWS V14.01,2013-03-05 14:41:00,
2013-03-05 08:46:00,48.1,28.8,30.25,NNW,340,14.0,27.0,47,0.00,,---,0.00,VWS V14.01,2013-03-05 14:46:00,
2013-03-05 08:51:00,48.1,29.4,30.25,NW,313,2.0,16.0,48,0.00,,---,0.00,VWS V14.01,2013-03-05 14:51:00,
2013-03-05 08:56:00,48.5,29.7,30.26,NW,306,11.0,21.0,48,0.00,,---,0.00,VWS V14.01,2013-03-05 14:56:00,
2013-03-05 09:01:00,48.1,29.4,30.26,NNE,30,6.0,16.0,48,0.00,,---,0.00,VWS V14.01,2013-03-05 15:01:00,
2013-03-05 09:06:00,48.6,29.8,30.26,North,351,6.0,12.0,48,0.00,,---,0.00,VWS V14.01,2013-03-05 15:06:00,
2013-03-05 09:11:00,49.2,29.9,30.26,NNW,341,10.0,16.0,47,0.00,,---,0.00,VWS V14.01,2013-03-05 15:11:00,
2013-03-05 09:16:00,49.4,29.5,30.27,NNW,336,8.0,16.0,46,0.00,,---,0.00,VWS V14.01,2013-03-05 15:16:00,
2013-03-05 09:22:00,49.1,28.7,30.27,NNW,348,11.0,22.0,45,0.00,,---,0.00,VWS V14.01,2013-03-05 15:22:00,
2013-03-05 09:27:00,48.9,27.4,30.27,NNW,347,15.0,21.0,43,0.00,,---,0.00,VWS V14.01,2013-03-05 15:27:00,
2013-03-05 09:32:00,49.0,27.5,30.27,North,355,14.0,18.0,43,0.00,,---,0.00,VWS V14.01,2013-03-05 15:32:00,
2013-03-05 09:37:00,48.9,26.8,30.27,NNW,336,14.0,21.0,42,0.00,,---,0.00,VWS V14.01,2013-03-05 15:37:00,
2013-03-05 09:42:00,49.4,26.7,30.28,North,349,12.0,15.0,41,0.00,,---,0.00,VWS V14.01,2013-03-05 15:42:00,
2013-03-05 09:47:00,50.1,27.3,30.28,NNW,333,9.0,13.0,41,0.00,,---,0.00,VWS V14.01,2013-03-05 15:47:00,
2013-03-05 09:52:00,50.4,26.4,30.28,NNE,29,6.0,14.0,39,0.00,,---,0.00,VWS V14.01,2013-03-05 15:52:00,
2013-03-05 09:57:00,50.3,25.7,30.28,NNW,344,7.0,22.0,38,0.00,,---,0.00,VWS V14.01,2013-03-05 15:57:00,
2013-03-05 10:02:00,50.2,25.6,30.28,NNW,327,7.0,15.0,38,0.00,,---,0.00,VWS V14.01,2013-03-05 16:02:00,
2013-03-05 10:07:00,50.3,24.4,30.29,NW,305,13.0,22.0,36,0.00,,---,0.00,VWS V14.01,2013-03-05 16:07:00,
2013-03-05 10:12:00,50.2,25.0,30.29,NNW,344,15.0,17.0,37,0.00,,---,0.00,VWS V14.01,2013-03-05 16:12:00,
2013-03-05 10:18:00,50.5,22.5,30.29,North,360,13.0,16.0,33,0.00,,---,0.00,VWS V14.01,2013-03-05 16:18:00,
2013-03-05 10:23:00,50.4,22.4,30.30,NNW,337,10.0,21.0,33,0.00,,---,0.00,VWS V14.01,2013-03-05 16:23:00,
2013-03-05 10:28:00,50.4,21.7,30.30,North,5,11.0,19.0,32,0.00,,---,0.00,VWS V14.01,2013-03-05 16:28:00,
2013-03-05 10:33:00,50.3,20.8,30.31,NNW,340,20.0,25.0,31,0.00,,---,0.00,VWS V14.01,2013-03-05 16:33:00,
2013-03-05 10:38:00,50.7,21.9,30.31,NNW,343,16.0,16.0,32,0.00,,---,0.00,VWS V14.01,2013-03-05 16:38:00,
2013-03-05 10:43:00,51.4,23.3,30.31,NNW,341,9.0,16.0,33,0.00,,---,0.00,VWS V14.01,2013-03-05 16:43:00,
2013-03-05 10:48:00,51.4,21.0,30.31,North,355,12.0,22.0,30,0.00,,---,0.00,VWS V14.01,2013-03-05 16:48:00,
2013-03-05 10:53:00,50.8,22.8,30.31,NNW,331,8.0,19.0,33,0.00,,---,0.00,VWS V14.01,2013-03-05 16:53:00,
2013-03-05 10:58:00,51.4,23.3,30.31,NNW,331,7.0,12.0,33,0.00,,---,0.00,VWS V14.01,2013-03-05 16:58:00,
2013-03-05 11:03:00,51.4,22.5,30.31,North,350,10.0,13.0,32,0.00,,---,0.00,VWS V14.01,2013-03-05 17:03:00,
2013-03-05 11:08:00,51.2,21.6,30.31,NNW,346,8.0,21.0,31,0.00,,---,0.00,VWS V14.01,2013-03-05 17:08:00,
2013-03-05 11:13:00,51.4,21.0,30.31,WNW,288,18.0,18.0,30,0.00,,---,0.00,VWS V14.01,2013-03-05 17:13:00,
2013-03-05 11:19:00,51.6,21.2,30.32,WNW,296,14.0,19.0,30,0.00,,---,0.00,VWS V14.01,2013-03-05 17:19:00,
2013-03-05 11:24:00,51.4,21.0,30.32,North,350,16.0,16.0,30,0.00,,---,0.00,VWS V14.01,2013-03-05 17:24:00,
2013-03-05 11:29:00,51.7,21.3,30.32,NNW,342,6.0,16.0,30,0.00,,---,0.00,VWS V14.01,2013-03-05 17:29:00,
2013-03-05 11:34:00,52.1,22.4,30.31,North,355,6.0,15.0,31,0.00,,---,0.00,VWS V14.01,2013-03-05 17:34:00,
2013-03-05 11:39:00,52.1,21.6,30.31,WNW,292,9.0,16.0,30,0.00,,---,0.00,VWS V14.01,2013-03-05 17:39:00,
2013-03-05 11:44:00,52.2,22.5,30.31,NW,315,11.0,16.0,31,0.00,,---,0.00,VWS V14.01,2013-03-05 17:44:00,
2013-03-05 11:49:00,52.2,21.7,30.32,NW,312,2.0,17.0,30,0.00,,---,0.00,VWS V14.01,2013-03-05 17:49:00,
2013-03-05 11:54:00,52.4,21.1,30.32,NW,309,11.0,14.0,29,0.00,,---,0.00,VWS V14.01,2013-03-05 17:54:00,
2013-03-05 11:59:00,52.4,21.1,30.32,NNW,338,11.0,19.0,29,0.00,,---,0.00,VWS V14.01,2013-03-05 17:59:00,
2013-03-05 12:04:00,52.2,21.7,30.32,NE,45,6.0,13.0,30,0.00,,---,0.00,VWS V14.01,2013-03-05 18:04:00,
2013-03-05 12:09:00,52.7,21.4,30.31,NNW,334,11.0,18.0,29,0.00,,---,0.00,VWS V14.01,2013-03-05 18:09:00,
2013-03-05 12:14:00,52.7,21.4,30.32,NW,315,20.0,20.0,29,0.00,,---,0.00,VWS V14.01,2013-03-05 18:14:00,
2013-03-05 12:20:00,52.8,22.2,30.32,WNW,290,8.0,15.0,30,0.00,,---,0.00,VWS V14.01,2013-03-05 18:20:00,
2013-03-05 12:25:00,53.0,21.6,30.31,NW,321,9.0,17.0,29,0.00,,---,0.00,VWS V14.01,2013-03-05 18:25:00,
2013-03-05 12:30:00,52.9,21.5,30.31,NW,319,17.0,18.0,29,0.00,,---,0.00,VWS V14.01,2013-03-05 18:30:00,
2013-03-05 12:35:00,53.0,20.8,30.31,North,350,9.0,19.0,28,0.00,,---,0.00,VWS V14.01,2013-03-05 18:35:00,
2013-03-05 12:40:00,53.2,21.0,30.31,NNE,20,15.0,24.0,28,0.00,,---,0.00,VWS V14.01,2013-03-05 18:40:00,
2013-03-05 12:45:00,53.4,20.3,30.31,North,355,6.0,19.0,27,0.00,,---,0.00,VWS V14.01,2013-03-05 18:45:00,
2013-03-05 12:50:00,53.6,20.5,30.31,NNE,13,11.0,19.0,27,0.00,,---,0.00,VWS V14.01,2013-03-05 18:50:00,
2013-03-05 12:55:00,54.1,21.7,30.31,NNE,23,4.0,19.0,28,0.00,,---,0.00,VWS V14.01,2013-03-05 18:55:00,
2013-03-05 13:00:00,54.2,21.8,30.31,WNW,297,5.0,14.0,28,0.00,,---,0.00,VWS V14.01,2013-03-05 19:00:00,
2013-03-05 13:05:00,54.3,20.2,30.31,NNW,348,8.0,17.0,26,0.00,,---,0.00,VWS V14.01,2013-03-05 19:05:00,
2013-03-05 13:10:00,54.3,20.2,30.30,WNW,297,9.0,16.0,26,0.00,,---,0.00,VWS V14.01,2013-03-05 19:10:00,
2013-03-05 13:15:00,54.4,19.3,30.30,NW,304,13.0,19.0,25,0.00,,---,0.00,VWS V14.01,2013-03-05 19:15:00,
2013-03-05 13:20:00,54.2,19.2,30.30,NW,322,8.0,18.0,25,0.00,,---,0.00,VWS V14.01,2013-03-05 19:20:00,
2013-03-05 13:26:00,54.4,19.3,30.30,North,350,4.0,16.0,25,0.00,,---,0.00,VWS V14.01,2013-03-05 19:26:00,
2013-03-05 13:31:00,54.4,19.3,30.30,NW,314,12.0,19.0,25,0.00,,---,0.00,VWS V14.01,2013-03-05 19:31:00,
2013-03-05 13:36:00,54.8,18.7,30.30,NW,321,14.0,18.0,24,0.00,,---,0.00,VWS V14.01,2013-03-05 19:36:00,
2013-03-05 13:41:00,54.7,18.6,30.29,WNW,288,15.0,21.0,24,0.00,,---,0.00,VWS V14.01,2013-03-05 19:41:00,
2013-03-05 13:46:00,54.6,18.5,30.30,NNW,340,8.0,15.0,24,0.00,,---,0.00,VWS V14.01,2013-03-05 19:46:00,
2013-03-05 13:51:00,54.6,19.5,30.29,NW,325,5.0,16.0,25,0.00,,---,0.00,VWS V14.01,2013-03-05 19:51:00,
2013-03-05 13:56:00,55.0,18.9,30.29,SSW,213,7.0,12.0,24,0.00,,---,0.00,VWS V14.01,2013-03-05 19:56:00,
2013-03-05 14:01:00,55.5,18.3,30.29,NW,325,20.0,20.0,23,0.00,,---,0.00,VWS V14.01,2013-03-05 20:01:00,
2013-03-05 14:06:00,55.3,19.1,30.28,NNW,334,10.0,10.0,24,0.00,,---,0.00,VWS V14.01,2013-03-05 20:06:00,
2013-03-05 14:11:00,55.7,18.5,30.29,NW,321,12.0,21.0,23,0.00,,---,0.00,VWS V14.01,2013-03-05 20:11:00,
2013-03-05 14:16:00,55.4,19.2,30.29,NW,324,6.0,20.0,24,0.00,,---,0.00,VWS V14.01,2013-03-05 20:16:00,
2013-03-05 14:22:00,55.7,19.5,30.28,NW,318,6.0,14.0,24,0.00,,---,0.00,VWS V14.01,2013-03-05 20:22:00,
2013-03-05 14:27:00,55.7,19.5,30.28,NNW,339,6.0,15.0,24,0.00,,---,0.00,VWS V14.01,2013-03-05 20:27:00,
2013-03-05 14:32:00,55.8,19.6,30.28,West,279,6.0,12.0,24,0.00,,---,0.00,VWS V14.01,2013-03-05 20:32:00,
2013-03-05 14:37:00,56.2,19.9,30.28,NW,325,9.0,16.0,24,0.00,,---,0.00,VWS V14.01,2013-03-05 20:37:00,
2013-03-05 14:42:00,56.2,19.9,30.28,NW,309,11.0,19.0,24,0.00,,---,0.00,VWS V14.01,2013-03-05 20:42:00,
2013-03-05 14:47:00,56.4,18.0,30.28,NW,310,13.0,18.0,22,0.00,,---,0.00,VWS V14.01,2013-03-05 20:47:00,
2013-03-05 14:52:00,56.5,18.1,30.28,WNW,284,10.0,16.0,22,0.00,,---,0.00,VWS V14.01,2013-03-05 20:52:00,
2013-03-05 14:57:00,56.4,19.1,30.28,NNE,17,10.0,13.0,23,0.00,,---,0.00,VWS V14.01,2013-03-05 20:57:00,
2013-03-05 15:02:00,56.2,17.9,30.27,North,5,1.0,13.0,22,0.00,,---,0.00,VWS V14.01,2013-03-05 21:02:00,
2013-03-05 15:08:00,56.0,18.8,30.28,WNW,290,7.0,12.0,23,0.00,,---,0.00,VWS V14.01,2013-03-05 21:08:00,
2013-03-05 15:13:00,56.0,17.7,30.27,North,11,4.0,12.0,22,0.00,,---,0.00,VWS V14.01,2013-03-05 21:13:00,
2013-03-05 15:18:00,56.0,18.8,30.27,NNW,342,7.0,18.0,23,0.00,,---,0.00,VWS V14.01,2013-03-05 21:18:00,
2013-03-05 15:23:00,56.3,18.0,30.27,North,9,11.0,16.0,22,0.00,,---,0.00,VWS V14.01,2013-03-05 21:23:00,
2013-03-05 15:28:00,56.5,18.1,30.27,North,360,11.0,16.0,22,0.00,,---,0.00,VWS V14.01,2013-03-05 21:28:00,
2013-03-05 15:33:00,56.6,19.2,30.27,NNW,327,10.0,11.0,23,0.00,,---,0.00,VWS V14.01,2013-03-05 21:33:00,
2013-03-05 15:38:00,56.7,19.3,30.27,NW,324,5.0,12.0,23,0.00,,---,0.00,VWS V14.01,2013-03-05 21:38:00,
2013-03-05 15:43:00,56.9,17.4,30.27,WNW,288,3.0,15.0,21,0.00,,---,0.00,VWS V14.01,2013-03-05 21:43:00,
2013-03-05 15:48:00,56.9,18.5,30.27,NNW,344,13.0,16.0,22,0.00,,---,0.00,VWS V14.01,2013-03-05 21:48:00,
2013-03-05 15:53:00,56.6,18.2,30.27,NNW,342,2.0,14.0,22,0.00,,---,0.00,VWS V14.01,2013-03-05 21:53:00,
2013-03-05 15:58:00,56.3,18.0,30.27,NNW,335,10.0,16.0,22,0.00,,---,0.00,VWS V14.01,2013-03-05 21:58:00,
2013-03-05 16:04:00,56.1,18.8,30.27,NW,319,8.0,14.0,23,0.00,,---,0.00,VWS V14.01,2013-03-05 22:04:00,
2013-03-05 16:09:00,56.4,18.0,30.27,WNW,303,3.0,16.0,22,0.00,,---,0.00,VWS V14.01,2013-03-05 22:09:00,
2013-03-05 16:14:00,56.7,18.3,30.26,West,265,4.0,12.0,22,0.00,,---,0.00,VWS V14.01,2013-03-05 22:14:00,
2013-03-05 16:19:00,57.0,18.5,30.27,WNW,298,8.0,13.0,22,0.00,,---,0.00,VWS V14.01,2013-03-05 22:19:00,
2013-03-05 16:24:00,56.9,18.5,30.26,NW,319,6.0,15.0,22,0.00,,---,0.00,VWS V14.01,2013-03-05 22:24:00,
2013-03-05 16:29:00,56.8,18.4,30.27,NNW,331,9.0,16.0,22,0.00,,---,0.00,VWS V14.01,2013-03-05 22:29:00,
2013-03-05 16:34:00,56.7,18.3,30.27,North,360,17.0,17.0,22,0.00,,---,0.00,VWS V14.01,2013-03-05 22:34:00,
2013-03-05 16:39:00,56.4,18.0,30.27,NW,312,11.0,15.0,22,0.00,,---,0.00,VWS V14.01,2013-03-05 22:39:00,
2013-03-05 16:44:00,56.4,18.0,30.27,North,355,5.0,13.0,22,0.00,,---,0.00,VWS V14.01,2013-03-05 22:44:00,
2013-03-05 16:49:00,56.5,19.2,30.27,NW,326,9.0,12.0,23,0.00,,---,0.00,VWS V14.01,2013-03-05 22:49:00,
2013-03-05 16:54:00,56.9,18.5,30.27,NNW,340,9.0,12.0,22,0.00,,---,0.00,VWS V14.01,2013-03-05 22:54:00,
2013-03-05 17:00:00,56.4,18.0,30.27,NW,322,11.0,14.0,22,0.00,,---,0.00,VWS V14.01,2013-03-05 23:00:00,
2013-03-05 17:05:00,56.4,19.1,30.27,NNW,346,11.0,14.0,23,0.00,,---,0.00,VWS V14.01,2013-03-05 23:05:00,
2013-03-05 17:10:00,56.1,17.8,30.27,NW,308,5.0,13.0,22,0.00,,---,0.00,VWS V14.01,2013-03-05 23:10:00,
2013-03-05 17:15:00,55.8,18.6,30.27,NW,320,7.0,17.0,23,0.00,,---,0.00,VWS V14.01,2013-03-05 23:15:00,
2013-03-05 17:20:00,55.8,17.5,30.27,NNW,344,11.0,17.0,22,0.00,,---,0.00,VWS V14.01,2013-03-05 23:20:00,
2013-03-05 17:25:00,55.7,17.5,30.27,WNW,290,9.0,15.0,22,0.00,,---,0.00,VWS V14.01,2013-03-05 23:25:00,
2013-03-05 17:30:00,55.6,18.4,30.27,NNW,343,6.0,10.0,23,0.00,,---,0.00,VWS V14.01,2013-03-05 23:30:00,
2013-03-05 17:35:00,55.5,19.3,30.27,North,5,8.0,9.0,24,0.00,,---,0.00,VWS V14.01,2013-03-05 23:35:00,
2013-03-05 17:40:00,55.2,18.1,30.27,NNW,333,4.0,14.0,23,0.00,,---,0.00,VWS V14.01,2013-03-05 23:40:00,
2013-03-05 17:45:00,55.2,18.1,30.27,NW,316,6.0,11.0,23,0.00,,---,0.00,VWS V14.01,2013-03-05 23:45:00,
2013-03-05 17:50:00,55.1,18.0,30.27,NW,325,15.0,17.0,23,0.00,,---,0.00,VWS V14.01,2013-03-05 23:50:00,
2013-03-05 17:56:00,54.9,18.8,30.28,WSW,247,1.0,6.0,24,0.00,,---,0.00,VWS V14.01,2013-03-05 23:56:00,
2013-03-05 18:01:00,54.5,18.5,30.28,North,355,5.0,15.0,24,0.00,,---,0.00,VWS V14.01,2013-03-06 00:01:00,
2013-03-05 18:06:00,54.2,18.2,30.28,NW,319,2.0,11.0,24,0.00,,---,0.00,VWS V14.01,2013-03-06 00:06:00,
2013-03-05 18:11:00,53.9,18.0,30.28,WNW,301,4.0,11.0,24,0.00,,---,0.00,VWS V14.01,2013-03-06 00:11:00,
2013-03-05 18:16:00,53.7,18.7,30.28,NNW,330,3.0,9.0,25,0.00,,---,0.00,VWS V14.01,2013-03-06 00:16:00,
2013-03-05 18:21:00,53.4,18.5,30.29,NW,315,4.0,9.0,25,0.00,,---,0.00,VWS V14.01,2013-03-06 00:21:00,
2013-03-05 18:26:00,53.3,18.4,30.29,WNW,296,5.0,16.0,25,0.00,,---,0.00,VWS V14.01,2013-03-06 00:26:00,
2013-03-05 18:31:00,53.2,18.3,30.29,NNW,333,5.0,11.0,25,0.00,,---,0.00,VWS V14.01,2013-03-06 00:31:00,
2013-03-05 18:36:00,53.0,18.1,30.30,NW,325,4.0,12.0,25,0.00,,---,0.00,VWS V14.01,2013-03-06 00:36:00,
2013-03-05 18:41:00,52.8,18.0,30.30,NNW,342,0.0,6.0,25,0.00,,---,0.00,VWS V14.01,2013-03-06 00:41:00,
2013-03-05 18:46:00,52.6,17.8,30.30,NNW,342,6.0,8.0,25,0.00,,---,0.00,VWS V14.01,2013-03-06 00:46:00,
2013-03-05 18:52:00,52.4,17.6,30.30,NNW,333,6.0,9.0,25,0.00,,---,0.00,VWS V14.01,2013-03-06 00:52:00,
2013-03-05 18:57:00,52.3,17.5,30.30,NW,311,2.0,8.0,25,0.00,,---,0.00,VWS V14.01,2013-03-06 00:57:00,
2013-03-05 19:02:00,52.2,18.4,30.30,NW,313,3.0,6.0,26,0.00,,---,0.00,VWS V14.01,2013-03-06 01:02:00,
2013-03-05 19:07:00,52.0,19.1,30.30,WNW,294,0.0,5.0,27,0.00,,---,0.00,VWS V14.01,2013-03-06 01:07:00,
2013-03-05 19:12:00,51.8,18.9,30.30,NW,313,1.0,4.0,27,0.00,,---,0.00,VWS V14.01,2013-03-06 01:12:00,
2013-03-05 19:17:00,51.6,19.6,30.31,NW,323,2.0,7.0,28,0.00,,---,0.00,VWS V14.01,2013-03-06 01:17:00,
2013-03-05 19:22:00,51.4,19.4,30.31,NNW,333,2.0,7.0,28,0.00,,---,0.00,VWS V14.01,2013-03-06 01:22:00,
2013-03-05 19:27:00,51.3,19.3,30.31,West,279,3.0,3.0,28,0.00,,---,0.00,VWS V14.01,2013-03-06 01:27:00,
2013-03-05 19:32:00,51.0,19.9,30.31,NNW,330,0.0,1.0,29,0.00,,---,0.00,VWS V14.01,2013-03-06 01:32:00,
2013-03-05 19:37:00,50.9,19.8,30.31,NW,313,2.0,6.0,29,0.00,,---,0.00,VWS V14.01,2013-03-06 01:37:00,
2013-03-05 19:43:00,50.6,19.5,30.31,NW,316,0.0,2.0,29,0.00,,---,0.00,VWS V14.01,2013-03-06 01:43:00,
2013-03-05 19:48:00,50.5,20.2,30.32,NW,317,0.0,2.0,30,0.00,,---,0.00,VWS V14.01,2013-03-06 01:48:00,
2013-03-05 19:53:00,50.2,20.0,30.32,NNW,348,0.0,3.0,30,0.00,,---,0.00,VWS V14.01,2013-03-06 01:53:00,
2013-03-05 19:58:00,50.0,19.8,30.32,NNW,348,0.0,0.0,30,0.00,,---,0.00,VWS V14.01,2013-03-06 01:58:00,
2013-03-05 20:03:00,49.4,20.0,30.32,NNW,348,0.0,0.0,31,0.00,,---,0.00,VWS V14.01,2013-03-06 02:03:00,
2013-03-05 20:08:00,48.8,20.3,30.32,NNW,337,0.0,3.0,32,0.00,,---,0.00,VWS V14.01,2013-03-06 02:08:00,
2013-03-05 20:13:00,48.5,20.0,30.32,North,355,0.0,6.0,32,0.00,,---,0.00,VWS V14.01,2013-03-06 02:13:00,
2013-03-05 20:18:00,48.4,19.9,30.33,NW,322,4.0,7.0,32,0.00,,---,0.00,VWS V14.01,2013-03-06 02:18:00,
2013-03-05 20:23:00,48.7,20.2,30.33,NNW,343,5.0,7.0,32,0.00,,---,0.00,VWS V14.01,2013-03-06 02:23:00,
2013-03-05 20:28:00,49.0,20.4,30.33,NNW,348,7.0,7.0,32,0.00,,---,0.00,VWS V14.01,2013-03-06 02:28:00,
2013-03-05 20:33:00,49.0,19.7,30.33,NNW,340,1.0,5.0,31,0.00,,---,0.00,VWS V14.01,2013-03-06 02:33:00,
2013-03-05 20:38:00,48.9,20.4,30.33,NNW,336,1.0,6.0,32,0.00,,---,0.00,VWS V14.01,2013-03-06 02:38:00,
2013-03-05 20:44:00,48.7,20.2,30.33,NNW,343,4.0,5.0,32,0.00,,---,0.00,VWS V14.01,2013-03-06 02:44:00,
2013-03-05 20:49:00,48.6,20.1,30.33,North,355,4.0,6.0,32,0.00,,---,0.00,VWS V14.01,2013-03-06 02:49:00,
2013-03-05 20:54:00,48.5,20.0,30.33,NNW,327,6.0,6.0,32,0.00,,---,0.00,VWS V14.01,2013-03-06 02:54:00,
2013-03-05 20:59:00,48.3,19.8,30.33,North,360,3.0,6.0,32,0.00,,---,0.00,VWS V14.01,2013-03-06 02:59:00,
2013-03-05 21:04:00,48.1,19.6,30.33,NNW,338,4.0,6.0,32,0.00,,---,0.00,VWS V14.01,2013-03-06 03:04:00,
2013-03-05 21:09:00,47.9,20.2,30.33,NNW,332,2.0,4.0,33,0.00,,---,0.00,VWS V14.01,2013-03-06 03:09:00,
2013-03-05 21:14:00,47.8,20.1,30.33,NW,313,1.0,5.0,33,0.00,,---,0.00,VWS V14.01,2013-03-06 03:14:00,
2013-03-05 21:19:00,47.5,19.9,30.34,NNW,335,2.0,3.0,33,0.00,,---,0.00,VWS V14.01,2013-03-06 03:19:00,
2013-03-05 21:24:00,47.4,20.5,30.34,NNW,342,0.0,3.0,34,0.00,,---,0.00,VWS V14.01,2013-03-06 03:24:00,
2013-03-05 21:29:00,47.2,20.3,30.34,NNW,344,0.0,0.0,34,0.00,,---,0.00,VWS V14.01,2013-03-06 03:29:00,
2013-03-05 21:34:00,46.9,20.7,30.34,NNW,347,0.0,0.0,35,0.00,,---,0.00,VWS V14.01,2013-03-06 03:34:00,
2013-03-05 21:39:00,46.6,20.4,30.34,NNW,347,0.0,0.0,35,0.00,,---,0.00,VWS V14.01,2013-03-06 03:39:00,
2013-03-05 21:44:00,46.3,20.8,30.35,NNW,347,0.0,0.0,36,0.00,,---,0.00,VWS V14.01,2013-03-06 03:44:00,
2013-03-05 21:49:00,46.0,20.6,30.35,NNW,347,0.0,0.0,36,0.00,,---,0.00,VWS V14.01,2013-03-06 03:49:00,
2013-03-05 21:54:00,45.7,20.9,30.35,NNW,347,0.0,0.0,37,0.00,,---,0.00,VWS V14.01,2013-03-06 03:54:00,
2013-03-05 22:00:00,45.4,20.7,30.35,NNW,347,0.0,0.0,37,0.00,,---,0.00,VWS V14.01,2013-03-06 04:00:00,
2013-03-05 22:05:00,45.1,21.0,30.35,NNW,347,0.0,0.0,38,0.00,,---,0.00,VWS V14.01,2013-03-06 04:05:00,
2013-03-05 22:10:00,44.9,20.9,30.35,WNW,303,2.0,2.0,38,0.00,,---,0.00,VWS V14.01,2013-03-06 04:10:00,
2013-03-05 22:15:00,44.7,20.7,30.35,WNW,300,1.0,3.0,38,0.00,,---,0.00,VWS V14.01,2013-03-06 04:15:00,
2013-03-05 22:20:00,44.6,21.2,30.35,WNW,302,0.0,0.0,39,0.00,,---,0.00,VWS V14.01,2013-03-06 04:20:00,
2013-03-05 22:25:00,44.0,21.2,30.35,NW,304,0.0,0.0,40,0.00,,---,0.00,VWS V14.01,2013-03-06 04:25:00,
2013-03-05 22:30:00,43.7,21.0,30.35,NW,304,0.0,0.0,40,0.00,,---,0.00,VWS V14.01,2013-03-06 04:30:00,
2013-03-05 22:35:00,43.6,20.9,30.36,NW,309,0.0,0.0,40,0.00,,---,0.00,VWS V14.01,2013-03-06 04:35:00,
2013-03-05 22:40:00,43.4,21.3,30.36,NW,309,0.0,0.0,41,0.00,,---,0.00,VWS V14.01,2013-03-06 04:40:00,
2013-03-05 22:45:00,43.2,21.1,30.36,NW,309,0.0,0.0,41,0.00,,---,0.00,VWS V14.01,2013-03-06 04:45:00,
2013-03-05 22:50:00,42.8,21.9,30.36,NW,309,0.0,0.0,43,0.00,,---,0.00,VWS V14.01,2013-03-06 04:50:00,
2013-03-05 22:55:00,42.3,21.4,30.36,NW,312,0.0,0.0,43,0.00,,---,0.00,VWS V14.01,2013-03-06 04:55:00,
2013-03-05 23:00:00,41.9,21.6,30.36,NW,312,0.0,0.0,44,0.00,,---,0.00,VWS V14.01,2013-03-06 05:00:00,
2013-03-05 23:01:00,41.8,21.5,30.36,NW,312,0.0,0.0,44,0.00,,---,0.00,VWS V14.01,2013-03-06 05:01:00,
2013-03-05 23:06:00,41.5,22.3,30.36,NW,317,0.0,2.0,46,0.00,,---,0.00,VWS V14.01,2013-03-06 05:06:00,
2013-03-05 23:11:00,41.3,22.1,30.36,NW,325,3.0,3.0,46,0.00,,---,0.00,VWS V14.01,2013-03-06 05:11:00,
2013-03-05 23:16:00,41.5,21.2,30.36,NNW,329,1.0,4.0,44,0.00,,---,0.00,VWS V14.01,2013-03-06 05:16:00,
2013-03-05 23:21:00,42.0,21.1,30.35,NNW,329,0.0,3.0,43,0.00,,---,0.00,VWS V14.01,2013-03-06 05:21:00,
2013-03-05 23:26:00,42.4,21.5,30.35,NW,325,2.0,5.0,43,0.00,,---,0.00,VWS V14.01,2013-03-06 05:26:00,
2013-03-05 23:31:00,42.6,21.7,30.35,NW,326,1.0,4.0,43,0.00,,---,0.00,VWS V14.01,2013-03-06 05:31:00,
2013-03-05 23:36:00,42.8,21.9,30.36,NNW,338,4.0,6.0,43,0.00,,---,0.00,VWS V14.01,2013-03-06 05:36:00,
2013-03-05 23:42:00,43.0,21.5,30.36,NNW,331,4.0,4.0,42,0.00,,---,0.00,VWS V14.01,2013-03-06 05:42:00,
2013-03-05 23:47:00,43.0,22.0,30.36,NNW,333,1.0,6.0,43,0.00,,---,0.00,VWS V14.01,2013-03-06 05:47:00,
2013-03-05 23:52:00,43.0,22.0,30.37,NW,305,6.0,6.0,43,0.00,,---,0.00,VWS V14.01,2013-03-06 05:52:00,
2013-03-05 23:57:00,42.9,22.0,30.37,WNW,298,0.0,6.0,43,0.00,,---,0.00,VWS V14.01,2013-03-06 05:57:00,